Wind_Speed
17 16 14 15 15 15 17 18 17 16 16 17 17 17 17 18 20 20 21 21 20 20 20 20 20 21 21 22 23 24 24 24 24 24 24 24 25 25 25 24 23 22 22 20 20 19 18 18 17 16 16 15 15 15 15 15 15 16 16 17 17 17 17 17 17 17 17 17 18 20 21 22 23 24 25 25 26 26 27 27 27 27 28 28 29
18 16 14 14 15 15 17 18 17 17 16 17 17 17 18 19 19 19 21 21 21 22 22 22 22 22 22 23 24 23 24 23 23 23 23 24 24 24 23 23 22 21 20 19 18 18 17 17 16 16 15 15 15 15 15 15 15 16 16 17 17 17 17 17 16 16 17 18 20 21 22 23 24 25 26 26 26 27 27 27 28 29 29 30 30
18 17 15 14 15 15 16 18 18 17 16 16 18 18 18 18 18 19 20 21 21 22 22 22 22 22 22 23 22 22 22 22 22 22 22 22 22 22 21 21 20 19 18 17 17 17 16 16 15 15 14 14 14 14 14 15 15 16 17 17 17 17 17 16 16 16 18 20 21 21 22 24 25 25 26 26 26 27 27 28 29 29 30 30 30
18 18 15 14 16 14 14 18 18 18 16 16 18 18 17 17 18 18 19 20 21 22 22 22 23 22 22 21 21 20 20 20 20 21 21 20 20 20 20 19 18 17 17 16 16 16 15 15 14 14 14 14 14 14 14 15 16 16 17 17 17 17 16 16 16 17 19 20 21 22 24 25 26 26 26 26 26 27 27 29 29 30 30 30 30
15 16 16 16 17 14 14 17 18 17 16 16 17 16 16 17 17 18 18 19 20 21 22 21 21 21 20 20 19 18 18 18 18 19 19 18 18 18 18 18 17 16 16 15 15 14 14 14 14 14 14 14 14 14 14 15 16 16 16 16 16 16 16 16 17 18 20 20 21 23 25 26 26 26 27 27 27 27 28 29 29 30 30 30 30
12 13 15 15 16 15 14 16 17 16 15 15 16 15 16 17 17 18 17 18 19 19 20 19 18 19 18 18 17 16 16 16 16 17 17 16 16 16 17 16 16 16 15 15 14 14 14 13 13 13 14 14 14 14 15 15 16 16 16 16 16 16 16 16 17 19 20 20 22 24 25 26 26 27 27 27 27 28 28 29 29 29 29 29 29
11 12 14 13 15 16 15 16 16 16 15 15 16 16 16 17 17 17 17 17 17 18 18 17 16 16 16 16 15 14 14 15 14 15 15 15 15 15 15 15 15 15 15 14 14 14 14 13 13 13 14 14 14 14 15 15 16 16 16 16 16 15 15 16 18 19 20 21 23 25 25 26 26 26 27 27 27 27 28 28 28 29 29 28 28
10 11 12 12 13 15 15 16 16 15 15 15 16 17 16 16 16 16 17 16 16 16 15 14 14 14 14 14 13 13 13 13 13 13 13 13 14 14 14 15 15 15 15 14 14 14 14 14 13 13 14 14 14 14 15 15 15 15 15 15 15 15 15 16 18 19 20 21 23 24 25 25 25 25 25 25 25 26 26 27 28 28 28 28 28
9 10 11 11 11 13 13 14 14 14 14 14 15 16 16 16 15 15 16 15 14 14 13 12 12 11 12 12 12 12 12 12 12 13 12 12 12 13 14 14 15 15 15 14 14 14 14 14 13 13 13 14 14 14 15 15 15 15 15 14 14 14 15 17 18 19 20 22 23 23 23 23 23 24 24 24 24 25 25 26 27 28 28 29 29
9 9 9 10 10 11 12 12 12 12 12 13 14 15 15 15 15 15 15 15 14 12 11 11 10 10 10 11 11 11 11 11 11 12 12 11 11 12 13 14 14 14 15 14 14 14 14 14 14 13 14 14 14 14 14 14 14 14 13 13 13 14 15 18 19 19 21 22 22 22 22 22 22 22 22 23 24 24 25 26 27 28 28 29 29
7 8 8 9 9 10 10 10 10 11 11 12 13 13 13 13 14 14 13 13 13 12 11 10 9 9 9 10 11 10 10 10 10 11 11 11 10 10 11 12 13 14 15 14 14 14 14 14 14 14 14 14 13 13 13 13 13 13 12 13 13 14 16 18 18 20 20 21 21 21 20 20 20 20 21 22 23 24 25 26 27 28 28 29 30
6 6 7 7 8 8 8 9 10 10 11 11 12 12 12 12 12 11 11 11 11 11 10 9 9 9 9 9 9 8 8 8 8 9 10 10 9 9 9 11 13 14 15 15 14 14 15 15 14 14 13 13 13 12 12 12 12 12 12 12 13 15 17 18 18 19 19 19 19 19 18 18 18 19 20 21 23 24 24 25 27 28 29 29 30
4 4 5 6 6 6 6 7 8 9 10 10 11 11 11 11 10 10 9 9 9 9 9 8 8 8 8 8 8 7 7 7 8 9 9 9 8 8 8 10 12 14 15 15 15 15 15 15 14 13 12 12 11 11 11 11 11 11 12 12 13 15 16 17 18 18 18 17 17 17 17 17 17 18 19 20 22 23 24 25 26 27 28 29 29
3 3 3 4 5 5 5 6 6 7 8 9 10 10 9 9 9 8 8 7 7 7 6 6 7 7 7 8 8 7 7 7 8 9 9 9 8 8 9 10 12 14 15 15 15 14 14 14 14 12 11 11 10 10 10 10 11 11 11 11 13 14 16 17 17 17 16 16 15 15 15 15 16 16 18 19 21 22 23 24 26 27 28 29 29
3 2 2 3 3 4 4 4 4 6 6 7 8 8 8 8 7 7 6 6 6 5 5 5 5 5 6 6 7 7 7 7 7 8 9 10 9 9 9 10 12 14 14 14 15 14 13 13 12 11 10 10 9 9 10 10 10 10 10 11 12 14 15 16 16 16 15 14 14 13 13 14 14 15 17 18 20 21 22 24 25 26 28 28 29
3 2 1 2 3 3 4 4 4 4 4 5 6 6 7 7 7 6 6 5 5 4 4 4 4 4 4 6 6 5 6 7 7 8 9 10 10 10 9 10 12 14 14 13 13 13 12 11 11 10 9 9 8 8 9 10 9 9 9 10 12 13 14 15 15 14 13 13 12 12 12 13 14 15 17 18 20 21 22 23 25 26 27 28 29
3 3 2 2 2 2 3 3 3 3 3 3 4 5 6 6 6 6 5 5 4 3 3 4 4 4 4 5 5 5 5 6 7 8 8 8 9 10 10 9 11 13 13 12 12 12 11 10 9 9 8 8 8 8 8 8 8 8 9 10 11 11 12 13 13 13 12 11 11 11 11 12 14 15 16 17 19 20 21 22 24 25 26 27 28
3 3 3 2 2 2 2 3 2 2 2 3 3 3 4 5 5 5 5 4 4 4 3 4 4 4 4 5 5 5 6 6 6 8 8 7 8 8 9 8 9 10 11 11 11 11 11 9 8 8 8 7 7 7 7 7 7 8 9 9 9 10 11 11 11 11 10 10 10 10 11 12 13 14 15 17 18 19 20 21 23 24 25 25 26
3 3 3 3 3 2 2 2 2 2 1 2 2 2 3 3 4 4 4 4 4 4 3 4 4 5 5 5 6 6 6 6 6 7 7 8 7 7 7 8 8 8 10 11 10 10 10 8 8 8 7 7 6 6 6 6 6 7 8 8 8 9 9 9 10 10 9 9 9 10 11 12 13 14 15 17 18 20 20 21 22 23 23 24 25
4 4 4 4 3 3 3 3 3 3 2 2 1 1 2 2 3 4 4 4 4 4 3 4 4 5 6 6 6 7 7 6 6 6 6 7 7 7 6 6 6 7 9 10 10 9 9 8 8 8 6 6 5 5 5 5 6 7 7 7 7 8 8 8 8 8 8 8 8 9 10 11 13 14 15 17 18 20 21 21 22 22 22 22 23
4 4 4 4 4 4 3 3 3 4 4 3 2 2 2 2 2 3 3 4 4 4 4 4 3 4 5 6 6 6 7 7 7 7 7 6 7 8 7 6 6 6 9 10 9 9 8 8 8 7 6 5 4 4 4 5 5 6 6 6 6 7 7 7 7 7 7 8 8 9 10 11 13 14 15 16 17 19 20 21 21 21 21 21 22
3 4 4 4 4 4 4 3 3 3 3 4 3 3 3 2 3 3 3 4 5 4 4 4 4 4 5 6 6 6 6 6 7 7 7 7 6 6 6 6 6 6 8 10 10 9 8 8 8 6 5 4 4 4 4 4 5 5 5 5 5 6 6 6 6 6 7 8 9 10 10 11 12 14 15 16 17 18 19 20 21 21 20 20 21
3 4 4 4 4 4 4 3 3 4 4 4 4 4 3 3 3 3 2 3 5 5 5 5 4 4 5 5 6 6 6 6 6 6 6 6 6 5 5 5 6 6 8 9 10 9 9 8 8 6 5 4 4 4 4 4 4 4 4 4 4 4 4 4 4 5 7 9 9 10 10 11 12 14 14 15 17 18 19 19 20 20 21 21 21
3 3 4 4 4 4 4 4 4 4 4 4 4 3 3 4 4 3 3 3 5 5 5 5 5 5 5 5 5 5 6 6 6 6 6 6 5 5 5 5 6 7 7 8 8 8 9 8 8 6 5 5 5 5 4 4 4 3 3 3 3 3 3 3 3 4 7 8 9 9 9 10 12 13 14 15 16 18 19 19 19 20 21 21 21
4 3 3 3 3 5 5 5 5 5 5 5 5 4 4 4 4 4 3 3 4 5 5 5 5 5 5 5 5 4 5 5 5 5 5 5 5 4 4 5 6 6 7 8 8 8 8 8 7 6 6 6 6 5 5 4 4 3 2 1 1 1 1 2 3 4 6 7 8 9 9 10 12 13 14 14 15 17 19 19 19 19 20 20 20
5 4 3 3 3 5 5 5 5 5 5 5 5 5 5 5 4 4 4 3 4 4 5 5 5 5 5 5 5 5 5 5 5 5 5 5 5 4 4 5 5 6 6 6 7 7 7 7 7 6 6 6 6 5 4 4 3 3 3 2 2 1 2 3 4 5 6 7 8 9 9 9 11 12 14 14 15 16 18 19 19 19 19 20 20
7 6 4 3 3 4 5 5 5 5 5 5 5 5 6 5 5 5 4 3 4 4 4 5 5 5 5 5 6 6 6 6 5 5 5 4 4 4 5 5 4 5 6 6 6 6 6 7 7 6 6 6 5 5 4 4 3 3 4 3 4 4 4 5 7 8 9 9 9 9 10 9 10 11 13 14 14 15 17 18 19 19 20 20 21
9 7 5 4 4 4 4 5 5 4 4 4 4 5 5 5 5 5 5 3 3 4 4 4 4 4 5 5 5 5 5 6 6 6 6 5 5 5 5 5 5 5 6 6 6 6 6 6 6 6 6 5 5 4 4 4 4 4 5 5 5 5 6 7 8 9 10 11 10 10 10 11 11 11 12 13 13 14 15 17 19 20 21 21 21
10 8 7 6 5 4 4 4 5 4 4 4 5 5 5 5 4 5 5 4 3 4 4 3 3 3 3 4 4 4 5 5 5 6 6 6 6 6 6 6 6 6 6 6 6 6 6 6 6 6 6 5 4 4 3 4 4 4 5 6 6 6 7 7 9 10 10 11 11 10 10 11 11 11 11 12 13 13 14 16 18 20 21 21 21
11 10 8 7 6 5 5 4 4 4 4 4 5 5 5 5 5 5 5 4 4 5 4 3 3 3 2 3 4 5 5 5 5 5 5 5 6 6 6 6 6 6 6 7 7 7 7 7 6 6 5 5 4 3 3 4 5 6 7 7 8 9 9 9 9 10 10 10 10 10 10 11 11 11 11 11 12 13 14 16 18 19 20 20 20
13 11 10 8 7 6 5 4 4 4 5 5 5 5 5 5 5 5 4 4 5 5 4 4 3 4 3 3 4 5 6 6 6 5 4 5 6 6 6 6 6 6 6 6 6 6 6 6 5 5 4 4 4 4 6 7 8 8 8 9 10 11 11 11 10 10 11 11 10 11 10 10 11 11 11 12 12 12 13 15 17 18 19 19 19
15 13 11 10 8 7 7 6 5 4 5 6 6 6 5 4 5 5 4 3 4 4 4 4 4 4 4 2 3 4 5 5 5 5 5 5 6 6 6 6 6 6 6 6 5 5 5 5 6 6 6 6 7 7 8 10 10 10 9 10 10 10 12 13 12 12 12 12 12 12 12 11 11 12 12 13 13 13 13 15 16 18 18 18 18
16 15 13 11 9 8 8 7 6 6 6 6 6 6 5 4 4 4 4 3 3 3 3 4 3 3 4 2 2 2 3 4 5 5 5 5 5 5 5 5 5 5 5 5 5 4 4 5 5 6 6 7 7 7 8 9 10 11 10 10 10 10 10 12 14 15 14 13 13 13 13 13 13 12 13 14 14 13 13 14 15 17 17 17 17
18 16 15 13 11 10 9 9 8 7 6 6 6 6 5 5 4 4 4 4 3 3 2 3 2 3 3 3 2 2 1 2 4 5 5 5 5 5 5 5 5 5 5 4 4 4 4 4 4 5 5 6 6 7 8 8 9 10 11 11 10 10 10 9 11 14 16 14 13 13 13 13 13 13 13 13 14 14 14 14 14 15 16 16 15
19 17 16 14 13 12 11 11 10 8 7 7 7 7 6 6 6 5 5 5 5 4 4 3 3 2 2 2 2 2 1 1 2 3 5 6 6 6 6 5 5 5 5 5 5 5 5 5 5 6 7 7 8 9 9 10 10 11 12 13 12 12 12 10 8 10 14 15 15 15 13 12 13 13 13 13 13 14 14 13 13 14 14 15 15
19 18 17 16 15 14 13 12 11 10 9 8 8 8 7 7 7 7 7 6 6 5 5 5 4 4 3 2 1 1 1 0 1 2 3 5 6 6 7 7 6 6 7 7 7 7 7 8 8 8 9 10 10 10 11 12 12 13 14 14 15 14 14 14 10 9 12 14 15 15 15 14 13 13 13 13 13 13 13 13 13 13 13 14 14
20 20 19 18 17 16 15 14 13 12 11 10 9 9 9 8 8 8 8 8 7 7 6 6 5 5 5 5 4 4 4 3 3 3 4 4 5 6 6 6 7 7 8 8 9 9 9 10 10 10 11 11 12 12 12 13 13 14 15 15 16 16 16 16 14 12 13 14 14 15 15 15 15 14 13 13 13 13 13 12 13 13 13 13 14
20 20 20 19 19 18 17 16 15 14 13 12 11 11 10 10 9 9 9 9 8 8 7 7 6 6 6 6 6 6 6 6 6 6 6 6 6 6 6 6 6 7 7 8 8 9 9 10 10 10 10 10 11 12 12 12 13 13 14 14 15 16 17 17 17 15 14 14 15 15 15 15 15 15 14 13 13 13 13 13 13 13 13 14 14
21 21 21 21 20 20 19 18 17 16 16 15 14 13 12 12 11 10 10 10 10 9 9 8 8 8 8 8 7 8 8 8 8 8 8 8 8 8 8 8 8 8 8 8 8 8 9 9 9 9 9 9 10 10 10 9 10 10 10 11 12 14 15 16 17 16 15 14 14 16 17 17 17 17 16 15 15 15 15 14 13 14 14 14 15
22 21 21 21 21 21 20 20 19 18 18 17 17 16 15 14 13 13 12 11 11 11 10 10 10 9 9 9 8 8 8 9 9 9 9 9 9 9 9 9 9 9 9 9 9 8 8 8 8 8 8 8 8 8 7 7 6 6 6 7 9 11 13 14 15 16 16 15 14 14 15 18 19 18 18 18 17 17 17 15 14 14 15 15 15
23 22 22 22 21 21 21 21 20 20 19 19 19 18 17 16 16 15 14 13 13 12 12 12 12 11 11 10 9 9 9 10 10 10 10 10 9 9 9 9 9 8 8 8 8 7 7 7 7 6 7 7 7 6 6 6 5 5 6 7 8 9 10 11 13 15 15 15 15 13 13 15 17 18 18 18 18 19 18 16 14 13 15 15 15
24 23 22 21 21 21 21 21 21 20 19 19 19 19 19 19 18 17 16 16 15 14 14 14 13 13 13 12 11 11 11 11 11 11 11 11 11 10 10 9 9 9 9 8 8 8 7 7 7 7 7 8 8 7 7 7 7 7 8 9 9 10 10 11 13 14 15 14 15 15 15 15 14 14 15 17 18 20 20 19 15 13 14 15 15
27 25 23 21 20 20 20 20 20 19 19 19 19 19 20 20 19 19 18 17 17 16 16 16 15 15 15 14 13 13 12 13 13 12 12 12 12 12 12 11 10 10 10 10 10 9 9 9 9 9 9 10 10 10 10 9 9 9 10 10 11 12 13 13 14 15 16 15 14 15 16 17 16 14 14 14 15 16 20 20 18 16 16 16 15
30 28 25 23 21 20 20 20 20 19 19 18 18 19 20 20 20 20 19 18 18 18 18 17 17 17 16 16 16 15 15 14 15 15 15 15 15 15 14 13 12 12 12 12 12 12 11 11 11 12 12 11 11 12 12 11 11 11 12 12 13 13 15 16 17 18 18 17 16 15 16 18 18 16 16 15 14 13 16 18 18 17 17 17 16
32 30 28 26 25 23 22 21 20 20 19 18 17 18 19 21 20 20 19 18 18 18 18 19 19 18 18 18 18 18 17 17 17 17 18 18 18 17 17 16 15 15 14 14 14 14 14 13 13 14 15 13 13 14 14 14 14 14 15 15 15 16 16 18 19 21 21 20 18 17 17 19 19 18 18 17 16 15 16 17 17 16 16 17 17
28 29 30 29 28 26 24 23 22 21 21 20 19 19 20 21 22 21 20 19 18 18 18 19 20 20 20 20 20 20 20 20 19 20 20 21 21 20 19 18 18 17 17 17 17 17 17 16 16 17 18 17 15 16 17 17 17 18 18 18 18 19 20 20 21 22 23 23 21 19 19 22 21 19 19 18 17 18 19 18 17 16 15 16 17
27 28 29 30 30 29 28 27 25 23 23 22 21 20 21 23 23 23 21 19 19 19 19 20 21 21 22 22 22 22 22 22 22 22 23 23 24 23 22 20 20 20 19 19 20 20 19 19 18 18 19 20 19 18 19 20 20 21 21 20 21 22 22 21 22 23 24 24 24 21 20 22 24 21 20 20 17 17 20 21 19 17 16 15 16
29 28 28 30 30 31 31 30 28 26 25 25 24 23 23 25 26 25 22 21 21 21 21 22 22 22 23 23 23 23 24 24 24 24 25 25 25 25 24 23 22 21 21 21 22 22 22 21 21 20 20 21 21 20 21 21 22 23 23 22 23 25 24 22 22 24 24 24 25 23 20 21 24 23 22 22 19 17 18 21 21 19 18 16 16
32 31 31 32 31 31 32 31 31 30 29 29 27 26 26 27 27 26 24 23 22 22 22 23 24 24 24 24 25 25 25 25 26 26 27 27 26 25 25 26 25 22 21 22 24 24 23 23 22 21 21 21 21 21 22 23 24 26 25 24 25 26 24 23 23 24 24 24 26 26 22 20 23 24 23 24 23 19 17 19 21 21 20 19 18
34 34 34 33 31 30 30 31 32 33 33 32 31 29 29 30 30 29 27 26 24 23 23 24 25 25 26 26 26 26 26 26 28 28 29 28 28 27 26 26 25 23 23 24 25 25 24 24 23 22 22 22 22 22 22 23 25 27 27 26 27 27 25 23 23 23 23 25 28 28 25 22 23 24 23 24 24 23 20 19 20 21 20 20 20
35 35 34 33 32 31 30 31 33 34 33 33 34 33 32 33 32 32 31 29 26 25 25 25 25 26 26 27 28 27 27 28 29 30 30 30 29 28 28 27 25 23 24 26 27 26 24 23 23 22 22 22 23 22 22 23 25 26 27 27 28 29 27 25 25 24 23 24 29 30 26 24 25 25 25 24 24 25 24 21 21 21 21 21 20
Wind_Direction
101 96 95 101 101 101 104 102 99 96 93 93 91 92 91 90 92 95 98 99 101 102 102 102 103 104 106 106 105 104 102 99 96 93 90 88 86 84 83 83 83 82 81 81 82 82 82 80 78 75 71 67 64 62 62 62 63 61 59 55 51 51 53 55 55 53 52 54 56 56 56 54 52 50 47 44 42 40 39 37 35 33 34 34 35
102 97 97 102 99 99 101 101 101 97 93 93 91 88 87 88 89 89 93 97 99 100 100 101 103 104 105 105 105 103 100 97 94 92 89 87 85 84 83 81 80 78 78 78 79 79 77 75 72 69 66 64 63 63 65 65 64 61 56 53 51 54 56 55 54 53 55 57 58 57 55 53 52 49 46 44 42 41 40 38 37 36 36 38 38
101 95 91 92 92 94 100 102 100 94 89 90 89 86 86 91 95 95 98 101 101 101 102 103 104 104 104 104 102 100 98 95 93 90 88 86 84 83 81 79 77 76 76 76 76 75 73 71 68 67 66 66 66 67 68 66 63 59 54 53 54 57 57 55 55 56 58 59 59 57 56 54 52 49 47 45 43 42 41 39 39 39 39 40 40
100 100 95 93 89 87 93 96 91 87 88 88 87 90 92 94 97 98 100 103 103 102 103 104 104 104 103 101 99 97 96 95 92 88 86 84 84 82 80 78 77 76 75 74 74 72 70 69 68 69 70 71 72 71 69 65 61 56 54 55 58 59 57 56 56 59 60 59 59 58 57 55 53 50 48 46 45 43 41 39 40 40 40 40 39
95 97 95 94 91 89 91 92 90 89 92 91 89 92 96 95 95 94 96 100 100 100 102 103 102 102 101 98 96 94 94 93 91 88 85 83 83 82 81 79 78 76 74 73 71 71 70 71 72 73 75 76 75 72 67 62 58 55 55 58 61 60 58 57 59 60 60 60 60 60 59 57 54 51 49 47 45 42 40 39 39 39 39 38 36
86 84 86 91 89 91 92 92 97 100 99 97 92 92 92 91 93 95 95 96 97 98 100 100 99 98 96 95 93 92 91 90 89 87 85 83 82 83 82 81 78 76 74 74 73 74 75 75 77 79 79 78 74 70 65 60 57 56 59 62 62 61 59 59 61 61 61 62 63 62 60 58 55 52 50 47 44 42 40 39 38 37 37 35 33
81 77 79 83 80 82 82 83 89 94 95 93 90 87 86 86 91 96 95 94 95 97 99 100 99 97 95 93 91 88 87 88 87 86 85 84 84 83 83 82 80 78 77 78 79 80 80 80 81 82 81 78 73 68 63 58 57 59 63 64 63 62 60 61 63 63 63 64 64 63 61 59 56 53 50 47 44 41 39 38 36 35 34 32 30
76 74 75 76 76 77 77 78 80 82 85 86 86 86 85 86 88 90 91 91 92 95 98 100 100 99 97 95 91 87 84 84 85 85 85 86 86 86 85 83 81 81 82 84 86 85 85 85 84 84 81 77 71 65 60 56 57 62 65 66 65 63 63 65 66 67 67 67 65 64 62 59 56 53 49 46 43 40 38 36 35 33 31 29 27
77 73 74 73 76 79 79 80 81 81 82 83 86 88 88 89 90 89 91 92 92 94 98 100 99 99 98 96 92 88 85 83 85 86 87 87 89 90 88 85 84 84 85 87 89 90 90 90 88 85 81 75 68 62 58 57 59 64 67 67 67 67 67 69 69 69 69 67 66 64 61 58 55 51 48 45 43 40 37 35 33 31 29 26 24
84 77 75 74 73 76 79 81 81 83 85 84 85 87 87 89 93 94 95 96 96 94 95 97 98 98 97 95 92 90 88 86 86 87 89 91 93 93 90 88 87 87 87 88 90 93 94 94 91 85 79 72 65 59 58 60 64 67 69 70 70 70 71 72 72 71 69 68 66 64 60 57 53 50 47 44 43 40 36 34 32 30 28 25 23
87 81 77 75 72 74 79 80 80 83 86 86 86 87 88 88 89 93 96 99 100 100 98 97 97 97 95 94 92 90 88 86 86 89 92 94 95 92 91 91 91 91 91 89 92 97 98 96 91 84 76 68 61 58 59 64 69 72 73 73 73 73 74 73 74 72 70 69 67 64 60 55 51 48 45 44 43 41 37 35 33 30 28 25 22
91 87 82 77 75 74 77 81 80 81 84 86 85 84 84 84 84 87 90 94 98 102 103 101 102 103 101 99 97 92 87 86 90 94 96 99 100 95 94 98 98 96 94 94 97 100 100 96 90 81 73 66 61 60 63 68 72 75 75 75 75 75 75 75 75 73 71 69 67 63 59 55 50 47 44 43 43 42 38 35 33 31 28 25 23
103 96 92 87 85 80 76 78 80 79 82 84 82 79 79 82 83 84 86 89 92 97 101 106 109 110 110 109 107 104 98 96 100 104 105 107 108 104 101 103 102 98 97 98 100 99 98 94 88 80 72 67 65 65 67 71 75 76 76 76 77 78 78 77 76 74 71 69 66 63 59 54 50 46 44 43 43 41 38 35 33 31 28 26 24
121 113 108 102 99 94 84 78 80 81 80 79 78 77 78 81 83 85 86 88 91 95 100 108 112 113 115 112 110 110 106 102 103 112 118 118 116 113 110 109 105 100 98 99 100 98 95 90 85 79 72 69 69 70 73 76 77 77 77 78 80 80 79 78 77 74 71 67 64 61 58 54 49 46 44 43 42 41 38 34 32 31 29 27 25
143 143 129 114 112 107 101 93 83 76 73 73 73 75 76 76 79 83 85 87 89 94 99 104 109 113 117 114 111 111 108 106 107 113 122 123 118 115 114 112 105 98 96 97 98 96 90 86 84 79 74 74 74 76 79 79 79 79 81 82 81 81 80 79 78 75 72 67 63 59 55 52 47 44 43 41 41 39 36 33 31 30 29 28 27
151 156 154 133 129 120 117 116 102 88 82 81 78 76 75 71 69 72 76 83 89 95 104 107 108 109 111 111 111 112 110 112 113 113 118 121 119 117 118 114 105 99 96 94 95 94 89 84 82 80 80 80 79 81 84 82 82 84 85 84 81 80 80 80 79 76 73 68 63 58 52 48 44 40 39 37 37 36 34 31 29 29 29 29 27
149 149 156 146 135 129 128 130 126 123 119 107 97 85 80 75 67 65 66 73 84 95 108 115 113 110 112 112 111 112 110 109 111 112 115 119 121 123 123 117 108 103 101 99 97 95 92 85 81 83 88 89 87 88 89 88 89 88 87 84 80 79 80 80 80 76 73 68 62 57 50 45 41 37 34 33 33 32 31 29 28 27 28 29 28
141 140 141 133 129 134 134 131 132 142 143 126 114 93 84 79 70 67 68 72 80 88 101 117 120 117 120 120 119 117 111 108 109 113 116 117 119 124 124 116 106 101 102 103 102 99 96 90 87 91 97 97 96 95 96 95 94 93 91 87 82 79 79 79 78 75 71 66 61 55 49 44 39 35 31 30 28 28 27 26 25 25 26 28 27
129 122 123 123 125 127 126 132 135 146 159 142 127 108 95 87 80 82 80 77 84 89 99 115 122 126 129 129 127 122 117 116 114 118 122 122 121 121 119 113 106 101 102 104 104 102 101 101 101 103 104 102 101 103 103 103 102 101 98 91 85 80 78 77 75 73 67 61 57 53 50 44 37 33 30 28 25 23 22 22 22 22 23 24 24
123 112 115 122 122 123 128 138 142 152 171 173 162 141 119 114 107 100 93 85 87 89 96 106 119 132 135 135 132 125 121 123 122 124 127 128 127 125 120 116 113 109 108 106 106 107 107 110 112 110 107 106 109 113 115 116 114 109 104 96 89 82 77 73 69 66 60 52 49 48 47 43 37 31 26 25 24 20 17 16 17 18 19 20 20
124 114 118 124 123 126 131 137 147 158 162 152 147 151 145 150 142 116 105 100 98 95 94 102 120 136 140 141 136 128 127 130 132 131 132 135 139 139 137 136 131 123 118 114 113 116 117 118 118 114 112 114 122 130 130 128 122 116 111 102 94 85 77 70 62 56 48 40 36 37 39 37 32 28 23 21 22 19 13 12 12 12 14 17 17
129 123 125 125 124 130 132 138 151 145 131 129 137 146 148 149 136 118 111 109 108 108 109 113 127 139 148 148 142 136 135 136 137 138 139 144 149 147 143 138 135 130 127 127 127 128 129 129 128 123 121 130 144 151 148 140 132 126 119 111 100 89 79 71 59 46 35 28 26 26 29 29 25 22 20 18 19 16 10 8 8 6 9 13 14
136 135 136 132 133 136 135 138 138 124 118 127 136 138 137 129 117 111 111 108 110 115 118 122 127 137 150 153 146 141 140 141 143 144 145 146 147 147 144 138 138 135 131 133 136 139 139 139 141 139 139 154 167 169 166 152 144 140 130 119 107 93 83 74 57 35 22 16 15 17 20 21 18 14 14 15 17 14 7 5 4 3 5 8 10
156 156 154 147 141 137 134 134 132 126 125 128 131 132 123 117 111 109 112 110 114 121 123 126 130 138 149 153 149 144 144 148 151 151 148 148 148 147 147 142 139 138 136 139 143 145 147 148 152 153 157 170 177 177 179 168 158 161 151 136 119 98 84 69 48 23 10 6 5 9 12 12 11 8 8 11 14 13 6 3 1 0 2 4 7
178 183 178 163 149 142 139 138 137 135 136 136 136 129 112 108 107 105 107 111 117 122 126 130 135 141 147 149 148 148 150 153 157 158 155 155 154 148 147 143 135 138 143 149 153 156 156 156 160 165 167 175 180 181 186 181 174 185 192 180 148 100 46 26 19 4 360 358 355 356 359 3 5 3 2 6 11 12 6 1 359 358 359 0 2
186 197 205 188 163 154 147 144 143 144 146 147 141 130 119 118 113 107 113 119 121 124 128 133 138 141 143 150 155 155 155 158 161 163 163 164 159 151 145 140 135 138 143 150 160 166 166 162 164 171 172 174 178 183 192 194 193 210 230 244 265 291 324 342 345 339 341 343 341 341 344 351 358 358 357 360 7 12 7 1 358 357 357 356 358
194 198 211 211 188 172 159 152 151 151 151 149 140 130 127 127 118 113 119 121 122 125 126 131 137 139 144 158 166 161 157 161 161 159 162 167 162 155 147 138 136 143 147 151 160 167 168 166 166 167 170 173 177 185 199 209 217 237 256 271 286 302 319 327 328 329 330 328 325 324 328 334 343 348 349 351 360 9 7 0 358 357 356 354 354
204 203 208 217 216 196 175 162 158 157 157 152 145 140 134 127 120 115 111 112 125 130 128 129 134 139 152 164 168 162 156 158 161 160 164 170 167 162 158 149 142 146 153 154 154 158 161 163 163 163 168 174 179 194 215 233 244 259 275 288 299 308 315 321 325 330 331 330 326 319 316 318 324 332 337 340 348 359 2 358 355 354 353 353 352
211 211 211 216 226 219 198 178 166 167 171 160 158 160 148 136 133 124 118 120 122 117 111 114 122 136 163 172 172 168 157 155 168 174 172 175 173 170 168 160 151 154 162 163 159 155 154 154 154 158 165 168 173 194 222 245 261 274 286 294 302 307 310 316 322 325 328 333 336 330 318 314 315 320 326 329 336 347 354 353 350 350 350 350 351
215 215 216 219 224 225 215 199 179 176 179 173 172 175 162 149 148 141 135 132 115 102 103 106 115 131 159 180 184 181 168 161 171 176 173 177 179 177 175 169 165 167 170 174 173 169 165 158 156 161 167 168 177 203 238 261 273 279 284 289 294 298 301 305 309 313 318 325 330 332 327 319 315 316 319 322 328 337 345 346 345 346 347 348 349
216 216 219 221 224 224 217 211 201 191 191 187 185 188 180 163 155 153 153 138 115 110 109 99 100 117 136 176 196 194 186 176 172 173 176 180 179 178 179 177 178 179 177 183 188 189 191 190 191 198 201 213 233 252 267 275 279 279 280 282 285 291 296 299 300 302 307 312 317 322 324 322 318 316 315 317 322 330 337 339 341 342 344 346 348
219 219 221 222 224 224 218 215 213 210 209 203 197 197 197 182 166 167 172 147 120 118 108 92 90 105 116 147 190 196 197 189 181 183 184 180 174 172 175 176 180 183 185 192 198 206 215 222 231 238 243 250 257 265 271 276 281 282 281 280 281 285 292 297 301 301 301 305 309 312 314 315 315 314 313 313 316 323 329 334 336 339 341 345 348
221 220 221 223 224 224 221 219 218 218 220 220 214 208 208 204 193 186 187 174 152 141 115 101 102 99 96 102 137 171 200 203 200 203 196 184 176 170 168 168 169 173 178 187 195 202 214 225 235 244 253 258 263 267 269 272 277 281 284 284 283 284 285 289 297 302 304 305 307 307 308 309 310 311 312 313 315 319 324 329 333 335 339 344 348
225 224 223 223 225 227 226 224 223 222 222 226 227 222 219 219 219 212 205 201 197 190 163 139 127 102 96 93 87 94 157 205 214 223 218 209 197 182 175 170 164 165 168 176 187 190 198 212 227 242 252 259 262 265 267 269 272 277 283 286 288 289 288 285 287 295 303 310 312 311 310 309 310 311 312 313 314 318 322 327 331 334 338 343 347
228 228 228 226 226 228 231 231 230 229 227 227 229 228 227 225 226 229 225 221 217 213 207 198 193 180 151 117 87 83 88 161 204 220 224 225 221 211 206 202 195 192 190 194 204 207 211 223 235 247 254 261 266 268 271 274 276 280 283 287 292 296 299 302 294 287 297 309 316 317 319 317 315 315 315 315 316 318 322 327 331 335 338 341 344
231 231 231 231 230 230 234 237 238 238 235 234 234 232 231 230 229 230 232 232 231 228 225 221 219 223 223 213 195 188 194 222 221 223 226 228 227 225 224 223 219 217 217 221 226 229 233 239 244 248 253 259 265 269 272 274 278 282 286 291 296 300 303 308 310 298 296 305 312 315 319 321 318 317 317 316 316 320 323 327 331 335 337 338 340
235 234 233 233 233 233 236 239 242 243 243 242 242 241 239 238 235 235 235 235 235 236 235 233 233 235 236 237 235 232 233 238 240 238 239 237 236 234 231 228 226 227 229 232 236 238 241 245 249 250 251 256 261 264 266 271 275 279 284 288 293 297 299 301 304 303 299 301 304 306 309 312 313 314 314 311 312 316 321 325 328 331 334 335 337
239 239 237 235 234 234 236 239 242 244 246 247 247 247 246 246 244 244 244 242 241 243 242 241 240 242 243 243 245 246 244 245 246 245 245 245 245 243 240 236 234 235 236 239 243 245 247 250 254 256 258 260 263 267 269 273 276 278 281 284 286 289 291 292 295 298 296 294 293 295 298 303 306 309 310 308 307 308 313 318 321 323 328 331 334
243 243 242 240 239 237 236 238 242 244 247 249 250 250 249 251 251 251 253 254 252 252 252 251 248 246 247 246 246 249 251 252 252 250 251 251 251 251 250 247 245 245 247 248 250 253 256 259 262 265 268 269 270 274 277 279 280 280 280 279 280 282 284 287 290 293 295 295 292 291 293 298 304 309 311 310 308 306 307 310 312 314 319 325 329
245 244 244 243 243 242 240 239 241 245 247 249 252 253 252 252 254 255 257 260 261 260 259 259 257 254 252 250 248 248 249 253 255 256 256 255 255 257 256 255 254 252 253 255 256 257 258 261 265 267 269 271 273 279 285 287 288 288 283 278 279 283 286 289 290 292 297 302 305 303 297 298 304 309 311 312 311 310 309 310 309 307 311 317 322
245 245 244 244 245 246 246 245 244 246 249 251 253 255 256 256 255 256 258 260 263 264 264 264 263 261 259 257 255 253 250 251 254 258 260 261 260 259 260 262 262 260 260 260 260 261 261 263 266 268 270 274 277 282 289 293 298 300 296 291 290 291 294 295 295 297 302 310 317 321 315 309 309 311 312 313 311 309 309 313 313 306 304 309 315
243 243 243 243 244 246 249 250 250 250 253 255 257 259 259 259 259 258 259 259 260 262 265 267 268 267 267 264 261 259 257 257 256 257 259 263 264 263 261 263 265 266 267 266 267 269 270 271 273 274 277 280 283 286 289 290 292 294 295 297 297 298 299 299 298 298 304 312 318 321 321 320 319 318 315 314 312 307 304 311 318 312 305 306 311
241 240 240 240 241 243 246 249 251 252 254 258 262 263 263 263 262 261 261 261 261 261 263 266 268 269 270 269 266 263 261 260 261 260 259 261 264 266 266 267 268 270 271 272 275 277 279 280 281 281 281 283 287 290 291 291 290 288 288 289 292 295 297 297 295 295 299 306 311 313 315 314 316 320 319 316 316 306 299 307 317 314 308 307 309
242 241 240 239 238 238 241 244 247 250 251 254 258 264 266 265 264 263 262 262 261 261 262 264 266 268 270 271 270 268 265 262 262 263 263 261 262 264 266 268 269 272 274 277 280 281 282 283 285 286 286 286 291 294 293 295 295 292 290 288 288 291 294 296 296 296 298 301 305 309 310 308 310 316 316 317 322 312 298 303 314 313 307 305 306
243 244 243 243 241 238 237 238 241 245 247 248 250 255 261 263 262 262 261 260 259 259 260 260 261 264 265 267 269 269 267 265 263 264 264 264 263 263 264 267 269 270 273 276 279 281 282 283 286 288 288 288 291 294 294 295 295 294 294 292 290 289 291 293 294 296 297 298 300 304 304 303 305 310 311 312 318 316 307 309 316 317 311 305 304
253 252 249 247 245 244 241 237 237 238 240 243 243 246 252 256 258 257 256 256 256 255 255 256 257 259 259 261 263 265 265 265 264 263 263 265 266 265 264 266 268 270 272 275 277 278 279 281 284 287 289 290 292 294 295 295 294 293 292 291 291 291 290 291 292 295 296 297 298 299 299 297 298 301 304 305 310 312 310 312 316 317 314 308 305
259 261 257 253 250 248 247 244 240 238 238 239 239 240 245 249 252 253 252 253 253 251 251 251 251 252 254 255 257 259 261 262 263 262 262 263 265 266 266 266 266 269 272 275 276 277 278 280 281 284 287 289 292 294 296 295 295 293 291 291 292 290 289 291 294 295 296 297 298 298 297 295 295 295 295 296 301 304 305 308 311 312 313 311 309
251 256 255 254 254 253 250 247 244 242 241 241 239 238 241 245 248 250 250 249 249 249 249 249 249 249 249 250 252 254 256 257 259 260 260 260 261 264 267 267 266 267 270 273 275 276 277 279 280 282 285 288 291 293 294 294 294 291 290 291 291 289 290 293 295 295 297 299 299 297 297 297 295 295 294 293 292 293 297 302 305 307 310 312 311
243 245 244 245 250 255 255 252 249 246 243 243 242 240 241 245 248 250 250 249 247 248 249 250 250 250 249 248 248 249 251 253 255 256 257 258 259 260 263 265 266 267 269 271 272 273 275 277 278 281 284 287 289 291 292 293 292 289 289 290 288 287 290 294 296 296 300 301 298 296 297 296 294 294 296 294 292 290 290 294 298 303 307 309 309
244 245 243 241 242 247 252 255 255 252 248 244 242 241 242 245 247 249 249 249 247 247 248 249 251 252 252 252 250 249 249 250 252 254 255 257 258 258 259 261 263 267 270 269 269 270 271 274 277 281 284 286 288 289 290 290 289 288 289 289 288 288 290 293 294 296 300 301 297 295 297 297 294 292 292 291 291 291 290 290 294 298 302 304 306
247 248 248 247 245 242 242 247 252 253 253 251 248 244 243 244 246 248 249 249 248 247 247 248 249 251 252 254 254 253 252 251 251 253 255 257 258 258 259 260 262 266 267 267 267 269 270 272 275 279 283 286 288 288 288 286 285 284 285 286 287 289 292 294 295 296 298 298 295 295 299 301 298 294 292 290 291 292 292 292 292 295 298 301 303
Height
5932 5933 5933 5934 5934 5936 5937 5936 5935 5935 5935 5935 5936 5936 5936 5936 5935 5935 5934 5933 5934 5934 5935 5936 5937 5938 5939 5940 5941 5942 5942 5943 5944 5944 5945 5946 5946 5947 5947 5947 5948 5949 5949 5950 5950 5951 5951 5952 5952 5952 5952 5951 5951 5951 5951 5951 5951 5951 5951 5950 5950 5949 5949 5949 5948 5948 5947 5946 5945 5945 5944 5943 5942 5941 5939 5938 5937 5935 5934 5933 5931 5930 5928 5926 5925
5934 5935 5935 5936 5936 5937 5938 5937 5937 5937 5936 5937 5937 5938 5937 5937 5938 5937 5936 5936 5936 5937 5938 5939 5940 5941 5942 5943 5943 5944 5945 5945 5946 5946 5947 5948 5948 5949 5949 5950 5950 5951 5951 5952 5953 5953 5953 5953 5953 5953 5953 5953 5953 5953 5952 5952 5952 5952 5952 5952 5951 5951 5950 5950 5950 5949 5949 5948 5947 5946 5946 5945 5943 5942 5941 5940 5938 5937 5936 5934 5933 5931 5929 5928 5926
5937 5937 5937 5937 5937 5938 5939 5939 5938 5938 5938 5939 5939 5939 5939 5939 5940 5940 5939 5939 5939 5940 5941 5942 5943 5944 5945 5945 5946 5946 5947 5948 5948 5949 5949 5950 5950 5951 5951 5952 5952 5953 5954 5954 5955 5955 5955 5955 5955 5955 5954 5954 5954 5954 5954 5954 5954 5954 5954 5953 5953 5952 5952 5952 5951 5951 5950 5949 5949 5948 5947 5946 5945 5944 5943 5941 5940 5939 5937 5936 5934 5933 5931 5929 5927
5938 5938 5939 5939 5938 5939 5940 5939 5938 5939 5940 5941 5941 5941 5941 5942 5943 5942 5942 5942 5941 5942 5943 5944 5946 5947 5947 5948 5948 5949 5949 5950 5951 5951 5951 5952 5952 5953 5953 5954 5954 5955 5956 5956 5956 5957 5957 5956 5956 5956 5956 5955 5955 5955 5955 5956 5956 5955 5955 5955 5954 5954 5954 5954 5953 5953 5952 5951 5951 5950 5949 5948 5947 5946 5944 5943 5942 5941 5939 5938 5936 5934 5932 5930 5929
5938 5939 5939 5940 5939 5940 5941 5939 5939 5940 5942 5943 5943 5943 5943 5944 5945 5944 5944 5943 5943 5944 5945 5947 5948 5949 5949 5950 5950 5951 5952 5952 5953 5953 5954 5954 5955 5955 5955 5956 5956 5957 5957 5958 5958 5958 5958 5958 5957 5957 5957 5957 5957 5957 5957 5957 5957 5957 5957 5956 5956 5956 5956 5955 5955 5954 5954 5953 5952 5952 5951 5949 5948 5947 5946 5945 5944 5942 5941 5939 5938 5936 5934 5932 5930
5938 5939 5940 5940 5939 5941 5942 5941 5942 5943 5944 5944 5944 5945 5945 5946 5946 5946 5946 5945 5945 5946 5947 5949 5950 5951 5952 5952 5953 5953 5954 5954 5955 5955 5956 5956 5957 5957 5957 5957 5958 5958 5959 5959 5959 5959 5959 5959 5959 5958 5958 5958 5959 5959 5959 5959 5959 5959 5958 5958 5958 5958 5958 5957 5957 5956 5956 5955 5954 5953 5952 5951 5950 5949 5948 5947 5945 5944 5943 5941 5939 5937 5935 5933 5931
5940 5940 5941 5941 5940 5941 5942 5942 5943 5945 5945 5946 5946 5946 5946 5947 5947 5948 5948 5948 5948 5948 5949 5951 5952 5953 5954 5954 5955 5955 5956 5956 5957 5957 5958 5958 5958 5959 5958 5959 5959 5959 5960 5960 5960 5960 5960 5960 5960 5960 5960 5960 5960 5961 5961 5961 5960 5960 5960 5960 5960 5960 5959 5959 5959 5958 5957 5957 5956 5955 5954 5953 5952 5951 5950 5948 5947 5946 5944 5942 5940 5938 5936 5934 5932
5942 5942 5942 5942 5942 5942 5943 5944 5945 5945 5946 5946 5946 5947 5947 5948 5948 5949 5949 5949 5950 5951 5952 5953 5954 5955 5956 5956 5957 5957 5957 5958 5958 5958 5959 5959 5960 5960 5960 5960 5960 5961 5961 5961 5961 5961 5961 5961 5961 5962 5962 5962 5962 5962 5962 5962 5962 5962 5962 5962 5961 5961 5961 5961 5960 5960 5959 5958 5957 5956 5956 5955 5954 5952 5951 5950 5949 5947 5945 5943 5942 5940 5938 5936 5934
5945 5945 5945 5945 5944 5944 5945 5946 5947 5947 5947 5948 5948 5948 5949 5949 5950 5950 5950 5951 5952 5953 5954 5955 5956 5956 5957 5958 5958 5958 5959 5959 5959 5959 5960 5961 5961 5961 5961 5961 5962 5962 5962 5962 5962 5962 5962 5963 5963 5963 5964 5964 5964 5964 5964 5964 5964 5964 5963 5963 5963 5963 5963 5963 5962 5961 5960 5959 5959 5958 5957 5956 5955 5954 5953 5951 5950 5948 5947 5945 5943 5941 5939 5937 5935
5947 5947 5947 5947 5947 5947 5947 5948 5948 5949 5949 5950 5950 5950 5951 5951 5952 5952 5953 5953 5954 5955 5955 5956 5957 5958 5959 5959 5959 5960 5960 5960 5960 5961 5961 5962 5962 5962 5962 5962 5963 5963 5963 5963 5963 5963 5964 5964 5965 5965 5965 5965 5966 5966 5966 5965 5965 5965 5965 5965 5965 5965 5965 5964 5963 5963 5962 5961 5960 5959 5958 5957 5956 5955 5954 5953 5951 5950 5948 5946 5944 5942 5940 5938 5936
5949 5949 5949 5949 5949 5949 5949 5950 5950 5951 5951 5952 5952 5952 5953 5953 5954 5954 5955 5955 5956 5956 5957 5958 5959 5959 5960 5961 5961 5961 5961 5961 5962 5962 5963 5963 5964 5964 5964 5964 5964 5964 5964 5965 5965 5965 5965 5965 5966 5966 5967 5967 5967 5967 5967 5967 5967 5967 5967 5967 5967 5967 5966 5965 5965 5964 5963 5962 5961 5961 5960 5959 5958 5957 5955 5954 5952 5951 5949 5948 5946 5944 5942 5939 5937
5950 5950 5950 5951 5951 5951 5951 5951 5952 5953 5953 5953 5954 5954 5954 5955 5955 5956 5956 5957 5957 5957 5958 5959 5960 5961 5961 5962 5962 5963 5963 5963 5963 5964 5964 5964 5965 5965 5965 5965 5965 5965 5965 5966 5966 5966 5966 5967 5967 5968 5968 5968 5968 5968 5968 5968 5968 5968 5968 5968 5968 5968 5967 5967 5966 5965 5964 5964 5963 5962 5961 5960 5959 5958 5957 5955 5954 5952 5951 5949 5947 5945 5943 5941 5939
5951 5951 5952 5952 5952 5952 5952 5953 5954 5954 5954 5955 5955 5956 5956 5956 5957 5957 5958 5958 5959 5959 5959 5960 5961 5962 5963 5963 5964 5964 5964 5964 5965 5965 5965 5965 5966 5966 5966 5966 5966 5966 5966 5967 5967 5968 5968 5968 5969 5969 5970 5970 5970 5970 5970 5970 5970 5970 5970 5970 5969 5969 5969 5968 5967 5966 5965 5965 5964 5963 5962 5961 5960 5959 5958 5957 5955 5954 5952 5951 5949 5947 5945 5942 5940
5952 5952 5953 5953 5954 5954 5954 5954 5955 5955 5956 5956 5956 5957 5957 5958 5958 5959 5959 5960 5960 5960 5961 5961 5962 5963 5963 5964 5965 5965 5965 5965 5966 5966 5966 5966 5967 5967 5967 5967 5967 5967 5968 5968 5969 5970 5970 5970 5970 5971 5971 5971 5971 5971 5971 5971 5971 5971 5971 5971 5971 5970 5970 5969 5968 5967 5967 5966 5965 5964 5964 5963 5962 5961 5960 5958 5957 5955 5954 5952 5950 5948 5946 5944 5942
5953 5953 5954 5954 5955 5955 5956 5956 5956 5957 5957 5957 5957 5958 5959 5959 5960 5960 5961 5961 5961 5962 5962 5963 5963 5963 5964 5964 5965 5966 5966 5966 5966 5966 5966 5967 5967 5968 5968 5968 5968 5969 5969 5970 5970 5971 5972 5972 5972 5972 5972 5972 5972 5972 5973 5972 5972 5972 5972 5972 5972 5971 5971 5970 5969 5968 5968 5967 5966 5966 5965 5964 5963 5962 5961 5960 5958 5957 5955 5953 5952 5950 5948 5946 5943
5954 5954 5954 5955 5956 5956 5957 5957 5958 5958 5958 5959 5959 5959 5960 5961 5961 5962 5962 5962 5963 5963 5963 5964 5964 5964 5964 5964 5965 5965 5966 5966 5966 5967 5967 5967 5967 5968 5969 5969 5969 5970 5971 5972 5972 5972 5973 5973 5973 5973 5973 5973 5974 5974 5974 5974 5974 5974 5973 5973 5973 5972 5972 5971 5970 5969 5969 5968 5968 5967 5966 5965 5965 5963 5962 5961 5959 5958 5956 5955 5953 5951 5949 5947 5945
5955 5955 5955 5956 5956 5957 5958 5958 5959 5959 5959 5960 5960 5961 5961 5961 5962 5963 5963 5963 5964 5964 5964 5964 5964 5965 5965 5964 5965 5965 5966 5966 5967 5967 5967 5968 5968 5969 5970 5970 5970 5970 5971 5973 5973 5974 5974 5974 5975 5975 5975 5975 5975 5975 5975 5975 5975 5975 5974 5974 5974 5973 5973 5972 5971 5970 5970 5969 5969 5968 5968 5967 5966 5965 5964 5962 5961 5959 5958 5956 5954 5952 5950 5948 5946
5955 5956 5956 5956 5957 5958 5958 5959 5959 5960 5960 5961 5962 5962 5962 5962 5962 5963 5963 5964 5964 5964 5965 5965 5965 5965 5965 5965 5965 5966 5966 5966 5967 5967 5968 5969 5969 5970 5970 5971 5971 5972 5972 5973 5974 5975 5975 5976 5976 5976 5976 5976 5976 5976 5976 5976 5976 5976 5975 5975 5975 5975 5974 5973 5972 5972 5971 5971 5970 5970 5969 5968 5967 5966 5965 5964 5962 5961 5959 5957 5955 5953 5952 5950 5948
5956 5956 5957 5957 5957 5958 5959 5959 5960 5960 5961 5961 5962 5962 5962 5962 5962 5963 5964 5964 5964 5964 5965 5965 5966 5966 5966 5967 5967 5966 5967 5967 5968 5968 5969 5969 5970 5971 5971 5972 5973 5973 5974 5974 5975 5976 5976 5976 5977 5977 5977 5976 5976 5976 5977 5977 5977 5977 5976 5976 5976 5976 5975 5974 5973 5973 5972 5972 5971 5971 5970 5969 5968 5967 5966 5965 5963 5962 5960 5959 5957 5955 5953 5951 5949
5957 5957 5957 5958 5958 5958 5959 5960 5960 5961 5961 5962 5962 5963 5963 5963 5963 5963 5964 5964 5965 5965 5965 5966 5966 5966 5967 5967 5968 5967 5968 5968 5968 5969 5969 5970 5971 5971 5972 5973 5974 5974 5975 5975 5976 5977 5977 5977 5977 5978 5978 5977 5977 5977 5977 5977 5977 5977 5977 5977 5977 5976 5976 5975 5974 5974 5973 5973 5972 5971 5971 5970 5969 5968 5967 5966 5964 5963 5961 5960 5958 5956 5954 5952 5950
5957 5958 5958 5958 5958 5959 5960 5960 5961 5961 5961 5962 5962 5963 5963 5963 5963 5964 5964 5965 5965 5966 5966 5966 5966 5967 5967 5968 5968 5968 5969 5969 5969 5970 5970 5971 5971 5972 5973 5973 5974 5975 5976 5976 5977 5977 5978 5978 5978 5978 5978 5978 5978 5978 5978 5978 5978 5978 5978 5978 5978 5977 5977 5976 5976 5975 5975 5974 5973 5972 5971 5970 5970 5968 5967 5966 5965 5964 5963 5961 5959 5958 5956 5954 5952
5958 5958 5959 5959 5959 5960 5960 5961 5961 5962 5962 5963 5963 5963 5963 5964 5964 5964 5964 5965 5965 5966 5966 5966 5967 5967 5968 5968 5969 5969 5969 5970 5970 5970 5971 5972 5972 5973 5973 5974 5975 5975 5976 5976 5977 5977 5978 5978 5979 5979 5979 5979 5979 5979 5979 5979 5979 5979 5979 5978 5978 5978 5978 5977 5976 5976 5976 5975 5974 5973 5972 5971 5970 5969 5968 5967 5966 5965 5964 5962 5961 5959 5957 5955 5953
5958 5959 5959 5959 5960 5960 5961 5961 5961 5962 5963 5963 5963 5963 5964 5965 5965 5965 5965 5965 5966 5966 5966 5967 5967 5967 5968 5969 5969 5969 5970 5970 5971 5971 5972 5972 5973 5974 5974 5974 5975 5976 5976 5977 5977 5978 5978 5979 5979 5979 5979 5979 5979 5980 5980 5980 5979 5979 5979 5979 5979 5979 5978 5978 5977 5977 5976 5976 5975 5974 5973 5972 5971 5970 5969 5968 5967 5965 5964 5963 5961 5960 5958 5956 5953
5959 5959 5960 5960 5960 5961 5961 5961 5962 5962 5962 5962 5963 5963 5964 5965 5965 5966 5966 5966 5966 5966 5966 5967 5967 5968 5968 5969 5970 5970 5971 5971 5972 5972 5972 5973 5974 5974 5975 5975 5975 5976 5977 5978 5978 5978 5979 5979 5979 5980 5980 5980 5980 5980 5980 5980 5980 5980 5980 5980 5979 5979 5979 5978 5978 5977 5977 5976 5976 5975 5974 5973 5972 5971 5970 5968 5967 5966 5965 5964 5962 5960 5958 5956 5954
5959 5959 5960 5960 5960 5961 5961 5961 5962 5962 5963 5963 5963 5963 5964 5965 5965 5966 5967 5967 5967 5967 5967 5967 5967 5968 5969 5970 5971 5971 5972 5972 5973 5973 5974 5974 5975 5975 5976 5976 5976 5977 5977 5978 5978 5979 5979 5980 5980 5980 5980 5980 5981 5981 5981 5981 5980 5980 5980 5980 5980 5979 5979 5979 5978 5977 5977 5977 5976 5976 5975 5974 5973 5972 5971 5969 5968 5966 5965 5964 5963 5961 5959 5957 5955
5958 5959 5960 5960 5961 5961 5961 5961 5962 5962 5963 5963 5964 5964 5965 5965 5965 5965 5966 5967 5967 5967 5967 5967 5968 5969 5969 5970 5971 5972 5973 5973 5974 5974 5975 5975 5976 5976 5977 5977 5977 5978 5978 5979 5979 5980 5980 5980 5981 5981 5981 5981 5981 5981 5981 5981 5981 5980 5980 5980 5980 5980 5979 5979 5978 5978 5977 5977 5977 5976 5975 5975 5973 5972 5971 5970 5968 5967 5965 5964 5963 5962 5960 5958 5956
5957 5959 5960 5960 5961 5961 5961 5961 5962 5962 5963 5963 5964 5965 5965 5965 5965 5965 5966 5966 5967 5967 5968 5968 5968 5969 5969 5970 5971 5972 5973 5974 5975 5975 5976 5976 5977 5977 5977 5978 5978 5979 5979 5979 5980 5980 5981 5981 5981 5981 5982 5982 5982 5982 5982 5981 5981 5981 5980 5980 5980 5980 5979 5979 5979 5978 5978 5977 5976 5976 5976 5975 5974 5973 5971 5970 5969 5967 5966 5965 5963 5962 5960 5959 5956
5957 5958 5959 5960 5961 5961 5962 5962 5962 5962 5963 5964 5964 5965 5965 5964 5965 5966 5966 5967 5967 5967 5968 5968 5968 5970 5970 5970 5971 5972 5973 5974 5975 5975 5976 5976 5977 5977 5978 5978 5978 5979 5979 5980 5980 5981 5981 5981 5982 5982 5982 5982 5982 5982 5982 5982 5982 5981 5981 5980 5980 5980 5979 5979 5978 5978 5977 5977 5976 5975 5975 5975 5974 5973 5971 5970 5969 5967 5966 5965 5963 5962 5961 5959 5957
5956 5957 5958 5959 5960 5961 5962 5962 5962 5963 5963 5964 5964 5965 5965 5965 5965 5966 5967 5967 5967 5968 5968 5968 5969 5970 5971 5971 5972 5973 5974 5974 5975 5975 5976 5977 5977 5977 5978 5978 5978 5979 5979 5980 5980 5981 5981 5981 5982 5982 5982 5982 5983 5983 5983 5982 5982 5981 5981 5980 5980 5980 5979 5979 5978 5977 5977 5976 5976 5975 5974 5974 5973 5972 5971 5970 5969 5967 5966 5965 5963 5962 5961 5959 5957
5956 5957 5957 5959 5960 5960 5961 5962 5963 5963 5963 5964 5964 5965 5966 5966 5966 5966 5967 5968 5968 5968 5968 5968 5969 5970 5971 5971 5972 5973 5973 5974 5975 5975 5976 5977 5977 5977 5978 5978 5978 5979 5979 5980 5980 5981 5981 5982 5982 5982 5982 5982 5983 5983 5983 5983 5982 5982 5981 5980 5980 5979 5979 5978 5978 5977 5976 5976 5975 5975 5974 5973 5973 5972 5970 5969 5968 5967 5966 5964 5963 5962 5960 5959 5957
5955 5956 5957 5958 5959 5960 5961 5962 5962 5963 5963 5964 5964 5964 5965 5967 5967 5967 5967 5968 5968 5968 5968 5968 5969 5970 5970 5971 5972 5972 5973 5974 5975 5975 5976 5976 5977 5977 5978 5978 5978 5979 5979 5980 5980 5981 5981 5982 5982 5982 5982 5982 5982 5982 5982 5982 5982 5981 5981 5980 5979 5979 5978 5977 5977 5976 5976 5975 5975 5974 5973 5973 5972 5971 5970 5969 5967 5966 5965 5964 5963 5961 5960 5958 5957
5954 5955 5956 5958 5959 5959 5960 5961 5962 5963 5963 5964 5964 5964 5965 5966 5967 5967 5967 5968 5968 5969 5969 5969 5969 5970 5970 5971 5972 5972 5972 5973 5974 5975 5976 5976 5977 5977 5978 5978 5978 5979 5979 5980 5980 5981 5981 5981 5982 5982 5982 5982 5982 5982 5981 5981 5981 5980 5980 5979 5978 5978 5977 5976 5975 5975 5975 5974 5974 5973 5973 5972 5971 5971 5969 5968 5967 5966 5964 5963 5962 5961 5959 5958 5956
5954 5955 5956 5957 5958 5959 5960 5961 5961 5962 5963 5964 5964 5964 5965 5965 5966 5967 5967 5968 5968 5969 5969 5969 5970 5970 5970 5971 5971 5972 5972 5973 5974 5975 5975 5976 5977 5977 5977 5978 5978 5979 5979 5980 5980 5980 5981 5981 5981 5981 5981 5981 5981 5981 5981 5980 5980 5979 5978 5978 5977 5977 5976 5975 5974 5974 5973 5973 5973 5972 5972 5971 5971 5970 5969 5968 5966 5965 5964 5963 5961 5960 5959 5958 5956
5953 5954 5955 5956 5957 5958 5959 5960 5961 5962 5963 5964 5964 5964 5964 5965 5966 5966 5967 5967 5968 5969 5969 5970 5970 5970 5971 5971 5971 5972 5972 5973 5973 5974 5975 5976 5976 5977 5977 5978 5978 5979 5979 5980 5980 5980 5980 5980 5980 5980 5980 5980 5980 5980 5980 5979 5979 5978 5977 5977 5976 5976 5975 5975 5974 5973 5972 5972 5972 5971 5971 5970 5970 5969 5968 5967 5966 5965 5963 5962 5961 5960 5958 5957 5956
5952 5954 5954 5956 5957 5958 5959 5960 5961 5962 5963 5963 5964 5964 5964 5965 5965 5966 5966 5967 5968 5968 5969 5970 5970 5970 5971 5971 5971 5972 5973 5973 5973 5974 5975 5975 5976 5977 5977 5978 5978 5979 5979 5979 5979 5980 5980 5980 5980 5980 5980 5979 5979 5979 5978 5978 5978 5977 5976 5976 5975 5974 5974 5974 5974 5973 5972 5971 5971 5970 5970 5969 5969 5968 5967 5966 5965 5964 5963 5961 5960 5959 5958 5957 5956
5951 5952 5954 5955 5956 5957 5958 5959 5960 5961 5962 5963 5964 5964 5964 5964 5965 5965 5966 5966 5967 5967 5968 5969 5970 5970 5971 5971 5972 5973 5973 5973 5974 5974 5974 5975 5976 5976 5977 5977 5978 5978 5978 5978 5979 5979 5979 5979 5979 5979 5978 5978 5978 5978 5977 5977 5976 5976 5975 5975 5974 5973 5973 5972 5972 5972 5971 5971 5970 5969 5968 5968 5967 5967 5966 5965 5964 5963 5962 5961 5960 5959 5958 5957 5956
5949 5951 5953 5954 5955 5956 5957 5958 5959 5960 5961 5962 5963 5964 5964 5964 5965 5965 5965 5966 5966 5966 5967 5968 5969 5969 5970 5971 5972 5972 5973 5973 5974 5974 5974 5975 5975 5976 5976 5977 5977 5977 5977 5977 5977 5978 5978 5978 5978 5978 5977 5977 5977 5977 5976 5976 5976 5975 5974 5974 5973 5972 5972 5971 5971 5971 5971 5970 5969 5968 5968 5967 5966 5965 5965 5964 5963 5962 5961 5960 5959 5958 5957 5956 5955
5948 5949 5951 5953 5954 5955 5956 5957 5958 5959 5960 5961 5962 5963 5964 5964 5964 5965 5965 5965 5965 5966 5966 5967 5967 5968 5969 5970 5971 5972 5972 5973 5973 5974 5974 5975 5975 5975 5976 5976 5976 5976 5976 5976 5976 5976 5977 5976 5976 5976 5976 5976 5976 5975 5975 5975 5974 5974 5973 5973 5972 5971 5970 5970 5969 5969 5969 5969 5968 5967 5966 5966 5965 5964 5963 5963 5962 5961 5960 5959 5958 5957 5956 5955 5954
5946 5948 5949 5951 5952 5953 5954 5955 5956 5957 5958 5959 5961 5962 5963 5963 5964 5964 5964 5965 5965 5965 5965 5966 5966 5967 5968 5969 5970 5970 5971 5971 5972 5973 5973 5973 5974 5975 5975 5975 5975 5975 5975 5975 5975 5975 5976 5976 5975 5975 5975 5975 5975 5974 5974 5974 5973 5973 5972 5971 5971 5970 5969 5968 5967 5967 5967 5967 5966 5965 5965 5964 5964 5963 5962 5961 5960 5960 5959 5958 5957 5956 5955 5955 5954
5944 5946 5947 5949 5950 5951 5953 5954 5955 5955 5956 5958 5959 5960 5961 5962 5963 5964 5964 5965 5965 5965 5965 5965 5966 5966 5967 5967 5968 5969 5969 5970 5970 5971 5971 5972 5972 5973 5973 5974 5974 5974 5974 5974 5974 5974 5975 5975 5975 5975 5974 5974 5974 5973 5973 5972 5972 5971 5971 5970 5969 5968 5968 5967 5966 5965 5965 5965 5965 5965 5964 5963 5962 5962 5961 5960 5959 5958 5957 5957 5956 5955 5954 5953 5953
5942 5943 5945 5946 5948 5949 5951 5952 5953 5954 5955 5956 5957 5958 5959 5960 5961 5962 5963 5964 5965 5965 5965 5965 5965 5966 5966 5966 5967 5967 5968 5968 5968 5969 5969 5970 5971 5971 5972 5972 5972 5973 5973 5973 5973 5973 5974 5974 5974 5974 5973 5973 5973 5973 5972 5972 5971 5971 5970 5969 5969 5968 5967 5966 5965 5964 5964 5964 5963 5963 5963 5962 5961 5960 5959 5958 5957 5957 5956 5955 5954 5954 5953 5952 5951
5938 5940 5942 5944 5946 5947 5948 5949 5951 5952 5953 5954 5955 5956 5957 5958 5959 5961 5962 5963 5964 5965 5965 5965 5966 5966 5966 5966 5966 5967 5967 5967 5967 5967 5967 5968 5968 5969 5969 5970 5970 5971 5971 5971 5972 5972 5972 5972 5972 5973 5972 5972 5972 5972 5972 5971 5971 5970 5969 5968 5968 5967 5966 5966 5964 5963 5963 5962 5962 5962 5961 5961 5960 5960 5959 5957 5956 5955 5953 5953 5952 5952 5951 5951 5950
5934 5937 5939 5941 5943 5944 5945 5946 5948 5949 5951 5952 5953 5953 5954 5955 5956 5958 5960 5961 5962 5963 5964 5964 5965 5965 5966 5966 5966 5966 5966 5966 5966 5966 5966 5966 5966 5967 5967 5968 5969 5969 5969 5970 5970 5970 5970 5971 5971 5971 5971 5971 5971 5971 5970 5970 5970 5969 5968 5967 5967 5966 5965 5964 5963 5962 5961 5961 5961 5960 5959 5958 5958 5958 5958 5957 5956 5954 5952 5951 5950 5950 5949 5948 5948
5930 5933 5935 5937 5939 5940 5942 5943 5944 5946 5948 5949 5950 5950 5951 5952 5953 5955 5956 5958 5959 5960 5961 5962 5963 5964 5964 5965 5965 5965 5965 5965 5965 5964 5964 5964 5964 5965 5965 5966 5967 5967 5967 5968 5968 5968 5968 5969 5969 5969 5969 5969 5969 5968 5968 5968 5968 5967 5966 5966 5965 5964 5963 5962 5961 5960 5959 5959 5959 5959 5958 5956 5955 5956 5955 5955 5955 5954 5951 5950 5949 5948 5947 5946 5946
5928 5930 5932 5934 5935 5937 5939 5940 5941 5943 5944 5946 5947 5947 5948 5948 5949 5951 5952 5954 5956 5957 5958 5959 5960 5961 5961 5962 5963 5963 5964 5964 5964 5963 5963 5962 5962 5963 5963 5964 5964 5965 5965 5965 5966 5966 5966 5966 5966 5966 5966 5966 5966 5966 5965 5965 5965 5964 5964 5963 5962 5962 5961 5960 5959 5958 5957 5956 5957 5957 5956 5954 5953 5953 5953 5952 5952 5951 5949 5949 5948 5947 5946 5945 5944
5927 5929 5930 5931 5933 5934 5935 5937 5938 5939 5940 5942 5943 5944 5944 5945 5945 5947 5949 5950 5952 5953 5954 5955 5956 5957 5958 5959 5960 5960 5961 5961 5961 5961 5961 5960 5960 5960 5961 5961 5962 5962 5962 5963 5963 5963 5963 5963 5964 5963 5963 5963 5963 5963 5962 5962 5961 5961 5960 5960 5959 5959 5958 5958 5957 5956 5954 5953 5953 5954 5953 5951 5950 5951 5950 5949 5949 5948 5947 5946 5946 5945 5945 5944 5942
5924 5925 5927 5928 5930 5932 5933 5933 5934 5936 5937 5938 5939 5941 5941 5941 5941 5943 5945 5947 5949 5950 5951 5951 5952 5953 5953 5954 5956 5956 5957 5958 5958 5958 5958 5958 5957 5958 5958 5959 5959 5960 5960 5960 5960 5959 5960 5960 5960 5960 5960 5959 5960 5960 5959 5958 5958 5957 5957 5957 5956 5955 5955 5954 5954 5953 5951 5950 5950 5950 5950 5948 5947 5947 5947 5947 5947 5946 5944 5943 5943 5943 5943 5942 5941
5918 5920 5921 5924 5926 5928 5929 5930 5931 5933 5934 5935 5936 5937 5938 5937 5937 5939 5941 5944 5945 5946 5947 5947 5948 5949 5949 5950 5951 5952 5953 5954 5954 5954 5954 5954 5955 5955 5955 5955 5956 5957 5957 5957 5956 5956 5956 5956 5957 5957 5957 5956 5956 5956 5956 5955 5954 5953 5953 5953 5952 5951 5951 5951 5951 5950 5949 5948 5946 5946 5947 5946 5943 5943 5943 5943 5944 5944 5942 5940 5940 5940 5940 5939 5939
5914 5915 5916 5918 5921 5924 5926 5928 5929 5930 5930 5931 5932 5934 5934 5934 5934 5936 5938 5939 5941 5942 5944 5944 5944 5945 5946 5946 5947 5947 5948 5949 5950 5950 5950 5950 5951 5952 5952 5952 5953 5954 5955 5954 5953 5953 5953 5953 5953 5954 5954 5954 5953 5953 5953 5952 5951 5949 5949 5950 5949 5948 5948 5948 5948 5947 5947 5946 5943 5942 5944 5944 5941 5940 5940 5939 5939 5940 5940 5938 5937 5936 5936 5936 5935
5913 5913 5914 5915 5918 5921 5923 5926 5927 5927 5927 5927 5928 5929 5930 5930 5931 5932 5933 5935 5937 5939 5940 5940 5941 5942 5942 5943 5943 5944 5945 5945 5945 5945 5946 5946 5947 5948 5949 5949 5950 5951 5952 5950 5949 5950 5950 5950 5950 5950 5950 5950 5950 5950 5949 5949 5947 5946 5945 5945 5944 5944 5945 5946 5945 5945 5944 5943 5940 5939 5940 5941 5939 5938 5937 5936 5935 5936 5936 5936 5934 5933 5933 5932 5932
5911 5912 5913 5914 5914 5915 5917 5919 5921 5923 5924 5925 5925 5926 5926 5926 5927 5928 5929 5931 5933 5934 5936 5936 5937 5938 5939 5939 5940 5941 5941 5941 5941 5941 5942 5942 5943 5944 5945 5946 5947 5949 5948 5947 5946 5946 5947 5947 5948 5947 5947 5947 5947 5947 5946 5945 5944 5943 5942 5941 5940 5939 5940 5942 5942 5942 5942 5940 5937 5935 5937 5937 5936 5935 5934 5934 5933 5932 5933 5933 5932 5931 5930 5930 5929